www.pogodaiklimat.ru

Погода и климат >> Архив погоды >> Россия >> Астраханская область >> Лиман


ПОГОДА в Лимане

  • Прогноз погоды в Лимане
  • Монитор погоды в Лимане

АРХИВ ПОГОДЫ в Лимане

Время (UTC), дата Ветер
(напр.,м/с)
 
Видим.   Явления Облачность Т
(С)
Тd
(С)
f
(%)
Тe
(С)
Тes
(С)
Комфортность P
(гПа)
Po
(гПа)
Тmin
(С)
Tmax
(С)
R
(мм)
R24
(мм)
S
(см)
06 19.06 Ю 1 20 км 3/3 600 м
[Sc]
+32.0 +11.2 28 +32 +42 жарко 1010.5 1012.3
09 19.06 В 2
{10}
20 км 3/3 600 м
[Cu med, cong]
+33.9 +12.0 26 +34 +47 очень
жарко
1009.6 1011.3
12 19.06 ЮВ 5 20 км 3/3 600 м
[Sc]
+34.6 +9.5 22 +34 +38 очень
жарко
1008.7 1010.4
15 19.06 ЮВ 4
{10}
20 км 3/3 600 м
[Sc]
+32.0 +9.1 24 +31 +32 жарко 1008.5 1010.2 +35.5
18 19.06 ЮВ 2 20 км 6/6 600 м
[Sc]
+26.8 +16.0 52 +30 +30 душно 1009.3 1011.0
21 19.06 штиль 0 20 км 9/9 600 м
[Sc]
+24.3 +17.6 66 +28 +28 душно 1009.8 1011.6
00 20.06 ЮВ 1 20 км ясно +22.1 +17.7 76 +27 +27 душно 1009.4 1011.2
03 20.06 Ю 1 20 км 8/1 600 м
[Sc Ac trans]
+23.9 +16.7 64 +27 +29 жарко 1009.7 1011.5 +21.0
06 20.06 ЮВ 2 20 км ясно +32.0 +8.6 23 +31 +44 жарко 1009.9 1011.6
09 20.06 В 3 20 км 1/0
[Ac cast]
+34.6 +8.5 20 +33 +48 жарко 1009.5 1011.2
12 20.06 В 4 20 км 3/1 600 м
[Sc Ci sp]
+34.6 +10.2 23 +34 +40 очень
жарко
1008.8 1010.5
15 20.06 В 3 20 км 6/1 600 м
[Sc Ci sp]
+31.7 +12.3 31 +32 +33 жарко 1009.6 1011.3 +35.3
18 20.06 штиль 0 20 км 3/3 600 м
[Sc]
+27.2 +17.6 56 +31 +31 душно 1010.7 1012.5
21 20.06 штиль 0 20 км 1/0
[Ci sp]
+23.2 +17.3 69 +28 +28 душно 1010.9 1012.7
00 21.06 С 1 20 км 1/0
[Ci sp]
+21.6 +17.4 77 +26 +26 душно 1011.1 1012.9
03 21.06 СВ 1 20 км ясно +23.5 +13.1 52 +26 +28 жарко 1012.2 1014.0 +19.9
06 21.06 СВ 1 20 км 3/0
[Ci sp]
+31.6 +11.6 29 +32 +46 жарко 1013.0 1014.7
09 21.06 СВ 2 20 км 8/0
[Cs]
+34.4 +9.3 22 +33 +49 жарко 1012.8 1014.5
12 21.06 СВ 2 20 км 10/0
[Cs]
+35.8 +8.3 19 +34 +43 очень
жарко
1012.3 1014.0
15 21.06 В 1 20 км 10/0
[Cs]
+33.1 +10.5 25 +33 +34 жарко 1012.4 1014.1 +36.2
18 21.06 ЮЗ 1 20 км 8/0
[Cs]
+27.3 +12.3 39 +29 +29 жарко 1013.0 1014.8
21 21.06 штиль 0 20 км 3/0
[Ci fib]
+22.7 +13.9 58 +26 +26 жарко 1013.2 1015.0
00 22.06 С 2 20 км ясно +20.3 +13.3 64 +23 +23 комфорт 1012.9 1014.7
03 22.06 СВ 1 20 км 1/0
[Ci fib]
+23.4 +12.2 49 +26 +29 жарко 1013.8 1015.6 +19.2
06 22.06 СВ 2 20 км 3/0
[Ci fib]
+33.4 +11.1 26 +33 +45 жарко 1014.3 1016.1
09 22.06 СВ 3 20 км 8/0
[Cs]
+36.4 +6.8 16 +34 +47 очень
жарко
1013.7 1015.5
12 22.06 СВ 3
{10}
20 км 8/0
[Cs]
+36.5 +6.0 15 +34 +42 очень
жарко
1013.3 1015.0
15 22.06 В 2 20 км 9/0
[Cs]
+34.7 +8.8 20 +33 +34 жарко 1013.3 1015.0 +37.3
18 22.06 штиль 0 20 км 8/0
[Cs]
+27.3 +14.5 45 +30 +30 душно 1013.6 1015.4
21 22.06 штиль 0 20 км 4/0
[Ci fib]
+23.1 +15.1 61 +27 +27 душно 1013.3 1015.1
00 23.06 штиль 0 20 км 8/0
[Ac trans Ci]
+20.2 +15.5 74 +23 +23 комфорт 1013.6 1015.4
03 23.06 СВ 1 20 км 6/0
[Ac trans Ci fib]
+24.6 +14.9 55 +27 +29 жарко 1014.3 1016.1 +19.3
06 23.06 В 3 20 км 9/0
[Ac cast Cs]
+32.5 +12.2 29 +33 +40 жарко 1014.4 1016.1
09 23.06 В 5
{10}
20 км пыльный позёмок 6/0
[Ac trans Ci sp]
+36.1 +7.4 17 +34 +42 очень
жарко
1013.7 1015.4
12 23.06 В 6-12
{12}
20 км пыльный позёмок 3/0
[Ci sp]
+36.1 +7.2 17 +34 +38 очень
жарко
1013.4 1015.1
15 23.06 В 4
{12}
20 км ясно +33.5 +9.1 22 +32 +33 жарко 1013.3 1015.0 +37.3
18 23.06 В 1 20 км 4/0
[Ci sp]
+27.2 +15.5 49 +30 +30 душно 1013.6 1015.4
21 23.06 В 1 20 км ясно +23.1 +18.8 77 +29 +29 очень
душно
1013.1 1014.9
00 24.06 В 2 20 км 1/0
[Ac trans]
+22.2 +17.8 76 +27 +27 душно 1013.1 1014.9
03 24.06 В 2 20 км 8/0
[Ac trans Ci sp]
+23.7 +17.3 67 +28 +29 душно 1013.2 1015.0 +19.6
06 24.06 В 3 20 км 8/0
[Ac cast Ci sp]
+33.0 +12.4 29 +33 +40 жарко 1013.5 1015.2
09 24.06 В 4
{11}
20 км 9/5 600 м
[Cu Sc Ac cast Ci sp]
+33.4 +16.9 37 +36 +40 очень
душно
1012.9 1014.7
12 24.06 В 4
{10}
20 км 9/0
[Ac inh]
+33.0 +11.1 26 +33 +36 жарко 1012.1 1013.8
15 24.06 В 4 20 км 9/4 600 м
[Sc Ci fib]
+33.4 +15.5 34 +35 +36 душно 1011.3 1013.0 +35.2
18 24.06 В 2 20 км 8/4 600 м
[Sc Ci fib]
+28.6 +21.2 64 +36 +36 очень
душно
1011.8 1013.6
21 24.06 В 2 20 км зарница 10/4 600 м
[Cb cap Cs]
+25.7 +20.2 72 +32 +32 очень
душно
1011.7 1013.5
00 25.06 ЮВ 2 20 км гроза без осадков 10/10 600 м
[Cb cap]
+26.1 +21.9 78 +34 +34 очень
душно
1011.7 1013.5
03 25.06 Ю 2 20 км гроза без осадков {ливн. осадки} 10/10 600 м
[Cb cap]
+24.0 +19.9 78 +29 +29 душно 1012.8 1014.6 +23.2 0.0
06 25.06 В 3 20 км {гроза, ливн. осадки} 9/3 600 м
[Sc diur, vesp Ac cast]
+29.0 +18.2 52 +34 +37 очень
душно
1012.3 1014.0
09 25.06 В 3 20 км 4/3 600 м
[Cu hum Ac trans]
+33.9 +17.9 39 +38 +48 очень
душно
1011.6 1013.3
12 25.06 ЮВ 4
{10}
20 км 8/6 600 м
[Cu Sc Ci sp]
+35.1 +16.5 33 +38 +40 очень
душно
1010.8 1012.5
15 25.06 С 1 20 км 1/0
[Ac cast]
+34.4 +15.5 32 +36 +38 душно 1011.9 1013.7 +38.8
18 25.06 С 2 20 км 1/1 600 м
[Sc]
+25.8 +19.3 67 +31 +31 очень
душно
1013.4 1015.2
21 25.06 С 1 20 км ясно +22.4 +17.7 75 +27 +27 душно 1013.6 1015.4
00 26.06 штиль 0 20 км ясно +20.2 +16.5 79 +23 +23 комфорт 1014.2 1016.0
03 26.06 СЗ 1 20 км 10/3 600 м
[Sc Cs]
+21.8 +18.0 79 +26 +28 душно 1015.4 1017.2 +19.9

 

Местоположение метеостанции Лиман (Астраханская область, Россия): широта 45.80 долгота 47.22 высота над уровнем моря -18 м.

В архиве по умолчанию представлена погода в Лимане за последнюю неделю. Архивные данные за месяц целиком и за предыдущие месяцы, начиная с января 2011 года, Вы можете получить, выбрав интересующий диапазон дат из раскрывающегося списка и нажав кнопку "Ввод!".


*Определитесь, кто Вы:
робот инопланетянин человек

Внимание! Время в таблицах - всемирное. Для получения местного времени необходимо прибавить поправку, которая равна 4 ч.

Смотрите также архив погоды в соседних городах и на ближайших метеорологических станциях:

Погода в Лагани (Калмыкия, Россия) (46 км)
Погода в Астрахани (Астраханская область, Россия) (79 км)
Погода в Артезиане (Калмыкия, Россия) (102 км)
Погода в Комсомольском (Калмыкия, Россия) (105 км)
Погода в Утте (Калмыкия, Россия) (112 км)
Погода в Зеленге (Астраханская область, Россия) (116 км)
Погода в Досанге (Астраханская область, Россия) (136 км)
Погода на Острове Тюлений (Дагестан, Россия) (149 км)
Погода в Яшкуле (Калмыкия, Россия) (151 км)
Погода в Юсте (Калмыкия, Россия) (163 км)

Пояснения к столбцам:

Ветер - указаны скорость ветра в м/с - средняя за 10 мин, порывы в срок и между сроками (в фигурных скобках) и направление, откуда дует ветер: С - северный, СВ - северо-восточный, В - восточный, ЮВ - юго-восточный, Ю - южный, ЮЗ - юго-западный, З - западный, СЗ - северо-западный.
Видимость - горизонтальная дальность видимости в метрах или километрах. При видимости от 1 до 10 км при отсутствии осадков обычно наблюдается дымка, при ухудшении видимости до 1 км и менее - туман. В сухую погоду видимость может ухудшаться дымом, пылью или мглою.
Явления - указаны атмосферные явления, наблюдавшиеся в срок или в последний час перед сроком; фигурными скобками обозначены явления, наблюдавшиеся между сроками (за 1-3 часа до срока); квадратными скобками обозначены град или гололедные отложения с указанием их диаметра в мм.
Облачность - указаны через наклонную черту общая и нижняя облачность в баллах и высота нижней границы облаков в метрах; квадратными скобками обозначены формы облаков: Ci - перистые, Cs - перисто-слоистые, Cc - перисто-кучевые, Ac - высококучевые, As - высокослоистые, Sc - слоисто-кучевые, Ns - слоисто-дождевые, Cu - кучевые, Cb - кучево-дождевые. Подробнее классификацию облаков см. в Атласе облаков (PDF).
T - Температура воздуха - температура, измеренная на высоте 2 м над землей.
Td - Температура точки росы - температура, при понижении до которой содержащийся в воздухе водяной пар достигнет насыщения.
f - Относительная влажность воздуха - влажноcть воздуха, измеренная на высоте 2 м над землей.
Te - Эффективная температура - температура, которую ощущает одетый по сезону человек в тени. Характеристика душности погоды. При расчете учитывается влияние влажности воздуха и скорости ветра на теплоощущения человека.
Tes - Эффективная температура на солнце - температура, которую ощущает человек, с поправкой на солнечный нагрев. Характеристика знойности погоды. Зависит от высоты солнца над горизонтом, облачности и скорости ветра. Ночью, в пасмурную погоду, а также при ветре 12 м/с и более поправка равна нулю.
P - Атмосферное давление - приведенное к уровню моря атмосферное давление.
Po - Атмосферное давление - измеренное на уровне метеостанции атмосферное давление.
Tmin - Минимальная температура - минимум температуры воздуха на высоте 2 м над землей.
Tmax - Максимальная температура - максимум температуры воздуха на высоте 2 м над землей.
R - Количество осадков - Количество выпавших осадков за период времени, мм. При наведении курсора мыши на число - период времени, за который выпало указанное количество осадков.
R24 - Количество осадков - Количество выпавших осадков за 24 часа, мм.
S - Снежный покров - Высота снежного покрова, см. При наведении курсора мыши на число - состояние снежного покрова и степень покрытия местности в баллах.